Georgetown, DE

10:13 AM EDT on September 22, 2017 (GMT -0400)
Sussex County

Weather History for KGED - April, 2014

Change the Weather History Date:

Saturday, April 26, 2014

  Actual Average Record
Temperature  
Mean Temperature 62 °F 57 °F  
Max Temperature 74 °F 68 °F 94 °F (2009)
Min Temperature 50 °F 47 °F 30 °F (1964)
Degree Days  
Heating Degree Days 3 9  
Month to date heating degree days 293 316  
Since 1 July heating degree days 4388 4228  
Cooling Degree Days 0 1  
Month to date cooling degree days 12 16  
Year to date cooling degree days 12 18  
Growing Degree Days 12 (Base 50)    
Moisture  
Dew Point 47 °F    
Average Humidity 62    
Maximum Humidity 93    
Minimum Humidity 31    
Precipitation  
Precipitation 0.11 in 0.10 in 1.15 in (1975)
Month to date precipitation 2.34 3.25  
Year to date precipitation 12.88 13.01  
Sea Level Pressure  
Sea Level Pressure 29.78 in    
Wind  
Wind Speed 10 mph (West)    
Max Wind Speed 23 mph    
Max Gust Speed 33 mph    
Visibility 9 miles    
Events Rain    
T = Trace of Precipitation, MM = Missing Value Source: NWS Daily Summary

Daily Weather History Graph

Daily Weather History Graph

Search for Another Location

Airport or City:

Trip Planner

Search our weather history database for the weather conditions in past years. The results will help you decide how hot, cold, wet, or windy it might be!

Date:

Astronomy

Apr. 26, 2014 Rise Set
Actual Time 6:10 AM EDT 7:48 PM EDT
Civil Twilight 5:42 AM EDT 8:17 PM EDT
Nautical Twilight 5:07 AM EDT 8:51 PM EDT
Astronomical Twilight 4:31 AM EDT 9:27 PM EDT
Moon 4:30 AM EDT (4/26) 5:16 PM EDT (4/26)
Length of Visible Light 14h 35m
Length of Day
13h 38m
Waning Crescent, 8% of the Moon is Illuminated
Apr 26
Waning Crescent
Apr 29
New
May 6
First Quarter
May 14
Full
May 21
Last Quarter

Hourly Weather History & Observations

Time (EDT) Temp. Dew Point Humidity Pressure Visibility Wind Dir Wind Speed Gust Speed Precip Events Conditions
1:54 AM 55.9 °F 54.0 °F 93% 29.68 in 5.0 mi WNW 9.2 mph - 0.01 in Rain Light Rain
1:59 AM 55.9 °F 54.0 °F 93% 29.67 in 2.5 mi West 4.6 mph - 0.03 in Rain Heavy Rain
2:27 AM 57.0 °F 55.0 °F 93% 29.68 in 7.0 mi West 6.9 mph - 0.10 in Rain Light Rain
2:38 AM 57.0 °F 55.0 °F 93% 29.68 in 8.0 mi WNW 10.4 mph - 0.10 in   Overcast
2:54 AM 55.9 °F 53.1 °F 90% 29.68 in 10.0 mi NW 13.8 mph 23.0 mph 0.10 in   Overcast
3:54 AM 53.1 °F 50.0 °F 89% 29.71 in 9.0 mi NW 11.5 mph 21.9 mph N/A   Overcast
4:54 AM 53.1 °F 48.9 °F 86% 29.74 in 10.0 mi NW 11.5 mph 19.6 mph N/A   Overcast
5:54 AM 52.0 °F 46.9 °F 83% 29.76 in 9.0 mi NNW 8.1 mph - N/A   Overcast
6:31 AM 51.1 °F 46.9 °F 86% 29.79 in 7.0 mi NNW 5.8 mph - N/A   Scattered Clouds
6:54 AM 51.1 °F 46.0 °F 83% 29.80 in 6.0 mi Variable 6.9 mph - N/A   Haze
7:54 AM 52.0 °F 46.0 °F 80% 29.84 in 7.0 mi Variable 5.8 mph - N/A   Clear
8:54 AM 55.9 °F 42.1 °F 60% 29.85 in 10.0 mi NNW 9.2 mph - N/A   Clear
10:54 AM 61.0 °F 41.0 °F 48% 29.88 in 10.0 mi NW 11.5 mph 25.3 mph N/A   Clear
11:54 AM 64.9 °F 42.1 °F 43% 29.86 in 10.0 mi West 9.2 mph - N/A   Clear
12:54 PM 68.0 °F 39.9 °F 36% 29.83 in 10.0 mi West 8.1 mph - N/A   Clear
1:54 PM 70.0 °F 42.1 °F 36% 29.81 in 10.0 mi West 9.2 mph 20.7 mph N/A   Clear
2:54 PM 70.0 °F 41.0 °F 35% 29.80 in 10.0 mi West 9.2 mph 21.9 mph N/A   Clear
3:54 PM 72.0 °F 44.1 °F 37% 29.78 in 10.0 mi SW 17.3 mph 26.5 mph N/A   Partly Cloudy
4:54 PM 73.0 °F 43.0 °F 34% 29.76 in 10.0 mi WSW 12.7 mph 23.0 mph N/A   Clear
5:54 PM 73.9 °F 45.0 °F 35% 29.75 in 10.0 mi SW 16.1 mph 23.0 mph N/A   Clear
6:54 PM 72.0 °F 45.0 °F 38% 29.76 in 10.0 mi WSW 10.4 mph - N/A   Clear
7:54 PM 69.1 °F 46.9 °F 45% 29.77 in 10.0 mi SW 9.2 mph - N/A   Clear
8:54 PM 69.1 °F 46.9 °F 45% 29.79 in 10.0 mi West 8.1 mph - N/A   Scattered Clouds
9:54 PM 71.1 °F 39.9 °F 32% 29.81 in 10.0 mi WSW 8.1 mph - N/A   Mostly Cloudy
10:54 PM 64.0 °F 50.0 °F 60% 29.83 in 10.0 mi West 9.2 mph 20.7 mph 0.00 in   Overcast
11:54 PM 63.0 °F 50.0 °F 63% 29.85 in 10.0 mi NW 4.6 mph - N/A   Clear